owner,sensor,date,latitude,longitude,air_pressure(mBar),qcFlag 
TABS,ioos:station:wmo:42044:1,2002-12-01T00:09:00Z,26.1914,-97.0507,1018.58,11111222 
TABS,ioos:station:wmo:42044:1,2002-12-01T01:09:00Z,26.1914,-97.0507,1019.41,11111222 
TABS,ioos:station:wmo:42044:1,2002-12-01T01:39:00Z,26.1914,-97.0507,1019.66,11111222 
TABS,ioos:station:wmo:42044:1,2002-12-01T02:09:00Z,26.1914,-97.0507,1019.72,11111222 
TABS,ioos:station:wmo:42044:1,2002-12-01T02:39:00Z,26.1914,-97.0507,1019.91,11111222 
TABS,ioos:station:wmo:42044:1,2002-12-01T03:09:00Z,26.1914,-97.0507,1019.6,11111222 
TABS,ioos:station:wmo:42044:1,2002-12-01T04:09:00Z,26.1914,-97.0507,1020.93,11111222 
TABS,ioos:station:wmo:42044:1,2002-12-01T04:39:00Z,26.1914,-97.0507,1020.55,11111222 
TABS,ioos:station:wmo:42044:1,2002-12-01T05:09:00Z,26.1914,-97.0507,1019.85,11111222 
TABS,ioos:station:wmo:42044:1,2002-12-01T05:39:00Z,26.1914,-97.0507,1019.91,11111222 
TABS,ioos:station:wmo:42044:1,2002-12-01T06:09:00Z,26.1914,-97.0507,1020.17,11111222 
TABS,ioos:station:wmo:42044:1,2002-12-01T07:09:00Z,26.1914,-97.0507,1019.41,11111222 
TABS,ioos:station:wmo:42044:1,2002-12-01T07:39:00Z,26.1914,-97.0507,1019.6,11111222 
TABS,ioos:station:wmo:42044:1,2002-12-01T08:09:00Z,26.1914,-97.0507,1019.6,11111222 
TABS,ioos:station:wmo:42044:1,2002-12-01T08:39:00Z,26.1914,-97.0507,1019.66,11111222 
TABS,ioos:station:wmo:42044:1,2002-12-01T09:09:00Z,26.1914,-97.0507,1019.53,11111222 
TABS,ioos:station:wmo:42044:1,2002-12-01T10:09:00Z,26.1914,-97.0507,1020.23,11111222 
TABS,ioos:station:wmo:42044:1,2002-12-01T10:39:00Z,26.1914,-97.0507,1017.57,11111222 
TABS,ioos:station:wmo:42044:1,2002-12-01T11:09:00Z,26.1914,-97.0507,1018.01,11111222 
TABS,ioos:station:wmo:42044:1,2002-12-01T11:39:00Z,26.1914,-97.0507,1018.01,11111222 
TABS,ioos:station:wmo:42044:1,2002-12-01T12:09:00Z,26.1914,-97.0507,1019.53,11111222 
TABS,ioos:station:wmo:42044:1,2002-12-01T13:09:00Z,26.1914,-97.0507,1020.87,11111222 
TABS,ioos:station:wmo:42044:1,2002-12-01T13:39:00Z,26.1914,-97.0507,1021.95,11111222 
TABS,ioos:station:wmo:42044:1,2002-12-01T14:09:00Z,26.1914,-97.0507,1021.82,11111222 
TABS,ioos:station:wmo:42044:1,2002-12-01T14:39:00Z,26.1914,-97.0507,1022.64,11111222 
TABS,ioos:station:wmo:42044:1,2002-12-01T15:09:00Z,26.1914,-97.0507,1023.98,11111222 
TABS,ioos:station:wmo:42044:1,2002-12-01T16:09:00Z,26.1914,-97.0507,1024.42,11111222 
TABS,ioos:station:wmo:42044:1,2002-12-01T16:39:00Z,26.1914,-97.0507,1021.95,11111222 
TABS,ioos:station:wmo:42044:1,2002-12-01T17:09:00Z,26.1914,-97.0507,1024.17,11111222 
TABS,ioos:station:wmo:42044:1,2002-12-01T17:39:00Z,26.1914,-97.0507,1022.58,11111222 
TABS,ioos:station:wmo:42044:1,2002-12-01T18:09:00Z,26.1914,-97.0507,1023.47,11111222 
TABS,ioos:station:wmo:42044:1,2002-12-01T19:09:00Z,26.1914,-97.0507,1020.87,11111222 
TABS,ioos:station:wmo:42044:1,2002-12-01T19:39:00Z,26.1914,-97.0507,1020.1,11111222 
TABS,ioos:station:wmo:42044:1,2002-12-01T20:09:00Z,26.1914,-97.0507,1024.17,11111222 
TABS,ioos:station:wmo:42044:1,2002-12-01T20:39:00Z,26.1914,-97.0507,1020.99,11111222 
TABS,ioos:station:wmo:42044:1,2002-12-01T21:09:00Z,26.1914,-97.0507,1021.69,11111222 
TABS,ioos:station:wmo:42044:1,2002-12-01T22:09:00Z,26.1914,-97.0507,1021.06,11111222 
TABS,ioos:station:wmo:42044:1,2002-12-01T22:39:00Z,26.1914,-97.0507,1021.63,11111222 
TABS,ioos:station:wmo:42044:1,2002-12-01T23:09:00Z,26.1914,-97.0507,1020.8,11111222 
TABS,ioos:station:wmo:42044:1,2002-12-01T23:39:00Z,26.1914,-97.0507,1020.87,11111222 
TABS,ioos:station:wmo:42044:1,2002-12-02T00:09:00Z,26.1914,-97.0507,1020.87,11111222 
TABS,ioos:station:wmo:42044:1,2002-12-02T01:09:00Z,26.1914,-97.0507,1020.87,11111222 
TABS,ioos:station:wmo:42044:1,2002-12-02T01:39:00Z,26.1914,-97.0507,1020.74,11111222 
TABS,ioos:station:wmo:42044:1,2002-12-02T02:09:00Z,26.1914,-97.0507,1020.87,11111222 
TABS,ioos:station:wmo:42044:1,2002-12-02T02:39:00Z,26.1914,-97.0507,1020.8,11111222 
TABS,ioos:station:wmo:42044:1,2002-12-02T03:09:00Z,26.1914,-97.0507,1021.06,11111222 
TABS,ioos:station:wmo:42044:1,2002-12-02T04:09:00Z,26.1914,-97.0507,1020.8,11111222 
TABS,ioos:station:wmo:42044:1,2002-12-02T04:39:00Z,26.1914,-97.0507,1020.61,11111222 
TABS,ioos:station:wmo:42044:1,2002-12-02T05:09:00Z,26.1914,-97.0507,1020.68,11111222 
TABS,ioos:station:wmo:42044:1,2002-12-02T05:39:00Z,26.1914,-97.0507,1020.68,11111222 
TABS,ioos:station:wmo:42044:1,2002-12-02T06:09:00Z,26.1914,-97.0507,1021.18,11111222 
TABS,ioos:station:wmo:42044:1,2002-12-02T07:09:00Z,26.1914,-97.0507,1020.93,11111222 
TABS,ioos:station:wmo:42044:1,2002-12-02T07:39:00Z,26.1914,-97.0507,1020.8,11111222 
TABS,ioos:station:wmo:42044:1,2002-12-02T08:09:00Z,26.1914,-97.0507,1020.74,11111222 
TABS,ioos:station:wmo:42044:1,2002-12-02T08:39:00Z,26.1914,-97.0507,1020.87,11111222 
TABS,ioos:station:wmo:42044:1,2002-12-02T09:09:00Z,26.1914,-97.0507,1020.93,11111222 
TABS,ioos:station:wmo:42044:1,2002-12-02T10:09:00Z,26.1914,-97.0507,1021.12,11111222 
TABS,ioos:station:wmo:42044:1,2002-12-02T10:39:00Z,26.1914,-97.0507,1020.36,11111222 
TABS,ioos:station:wmo:42044:1,2002-12-02T11:09:00Z,26.1914,-97.0507,1021.25,11111222 
TABS,ioos:station:wmo:42044:1,2002-12-02T11:39:00Z,26.1914,-97.0507,1020.99,11111222 
TABS,ioos:station:wmo:42044:1,2002-12-02T12:09:00Z,26.1914,-97.0507,1021.18,11111222 
TABS,ioos:station:wmo:42044:1,2002-12-02T13:09:00Z,26.1914,-97.0507,1020.23,11111222 
TABS,ioos:station:wmo:42044:1,2002-12-02T13:39:00Z,26.1914,-97.0507,1020.93,11111222 
TABS,ioos:station:wmo:42044:1,2002-12-02T14:09:00Z,26.1914,-97.0507,1021.82,11111222 
TABS,ioos:station:wmo:42044:1,2002-12-02T14:39:00Z,26.1914,-97.0507,1030.64,11111222 
TABS,ioos:station:wmo:42044:1,2002-12-02T15:09:00Z,26.1914,-97.0507,1027.53,11111222 
TABS,ioos:station:wmo:42044:1,2002-12-02T16:09:00Z,26.1914,-97.0507,1029.5,11111222 
TABS,ioos:station:wmo:42044:1,2002-12-02T16:39:00Z,26.1914,-97.0507,1021.25,11111222 
TABS,ioos:station:wmo:42044:1,2002-12-02T17:09:00Z,26.1914,-97.0507,1020.17,11111222 
TABS,ioos:station:wmo:42044:1,2002-12-02T17:39:00Z,26.1914,-97.0507,1019.91,11111222 
TABS,ioos:station:wmo:42044:1,2002-12-02T18:09:00Z,26.1914,-97.0507,1019.34,11111222 
TABS,ioos:station:wmo:42044:1,2002-12-02T19:09:00Z,26.1914,-97.0507,1018.2,11111222 
TABS,ioos:station:wmo:42044:1,2002-12-02T19:39:00Z,26.1914,-97.0507,1017.82,11111222 
TABS,ioos:station:wmo:42044:1,2002-12-02T20:09:00Z,26.1914,-97.0507,1017.76,11111222 
TABS,ioos:station:wmo:42044:1,2002-12-02T20:39:00Z,26.1914,-97.0507,1017.88,11111222 
TABS,ioos:station:wmo:42044:1,2002-12-02T21:09:00Z,26.1914,-97.0507,1017.5,11111222 
TABS,ioos:station:wmo:42044:1,2002-12-02T22:09:00Z,26.1914,-97.0507,1017.63,11111222 
TABS,ioos:station:wmo:42044:1,2002-12-02T22:39:00Z,26.1914,-97.0507,1017.37,11111222 
TABS,ioos:station:wmo:42044:1,2002-12-02T23:09:00Z,26.1914,-97.0507,1017.06,11111222 
TABS,ioos:station:wmo:42044:1,2002-12-02T23:39:00Z,26.1914,-97.0507,1017.12,11111222 
TABS,ioos:station:wmo:42044:1,2002-12-03T00:09:00Z,26.1914,-97.0507,1017.12,11111222 
TABS,ioos:station:wmo:42044:1,2002-12-03T01:09:00Z,26.1914,-97.0507,1017.25,11111222 
TABS,ioos:station:wmo:42044:1,2002-12-03T01:39:00Z,26.1914,-97.0507,1017.5,11111222 
TABS,ioos:station:wmo:42044:1,2002-12-03T02:09:00Z,26.1914,-97.0507,1017.44,11111222 
TABS,ioos:station:wmo:42044:1,2002-12-03T02:39:00Z,26.1914,-97.0507,1017.5,11111222 
TABS,ioos:station:wmo:42044:1,2002-12-03T03:09:00Z,26.1914,-97.0507,1017.5,11111222 
TABS,ioos:station:wmo:42044:1,2002-12-03T04:09:00Z,26.1914,-97.0507,1017.69,11111222 
TABS,ioos:station:wmo:42044:1,2002-12-03T04:39:00Z,26.1914,-97.0507,1017.69,11111222 
TABS,ioos:station:wmo:42044:1,2002-12-03T05:09:00Z,26.1914,-97.0507,1017.57,11111222 
TABS,ioos:station:wmo:42044:1,2002-12-03T05:39:00Z,26.1914,-97.0507,1017.37,11111222 
TABS,ioos:station:wmo:42044:1,2002-12-03T06:09:00Z,26.1914,-97.0507,1017.18,11111222 
TABS,ioos:station:wmo:42044:1,2002-12-03T07:09:00Z,26.1914,-97.0507,1016.74,11111222 
TABS,ioos:station:wmo:42044:1,2002-12-03T07:39:00Z,26.1914,-97.0507,1016.74,11111222 
TABS,ioos:station:wmo:42044:1,2002-12-03T08:09:00Z,26.1914,-97.0507,1016.55,11111222 
TABS,ioos:station:wmo:42044:1,2002-12-03T08:39:00Z,26.1914,-97.0507,1016.3,11111222 
TABS,ioos:station:wmo:42044:1,2002-12-03T09:09:00Z,26.1914,-97.0507,1016.17,11111222 
TABS,ioos:station:wmo:42044:1,2002-12-03T10:09:00Z,26.1914,-97.0507,1015.98,11111222 
TABS,ioos:station:wmo:42044:1,2002-12-03T10:39:00Z,26.1914,-97.0507,1016.04,11111222 
TABS,ioos:station:wmo:42044:1,2002-12-03T11:09:00Z,26.1914,-97.0507,1015.85,11111222 
TABS,ioos:station:wmo:42044:1,2002-12-03T11:39:00Z,26.1914,-97.0507,1015.98,11111222 
TABS,ioos:station:wmo:42044:1,2002-12-03T12:09:00Z,26.1914,-97.0507,1016.36,11111222 
TABS,ioos:station:wmo:42044:1,2002-12-03T13:09:00Z,26.1914,-97.0507,1016.74,11111222 
TABS,ioos:station:wmo:42044:1,2002-12-03T13:39:00Z,26.1914,-97.0507,1017.06,11111222 
TABS,ioos:station:wmo:42044:1,2002-12-03T14:09:00Z,26.1914,-97.0507,1017.37,11111222 
TABS,ioos:station:wmo:42044:1,2002-12-03T14:39:00Z,26.1914,-97.0507,1017.57,11111222 
TABS,ioos:station:wmo:42044:1,2002-12-03T15:09:00Z,26.1914,-97.0507,1017.82,11111222 
TABS,ioos:station:wmo:42044:1,2002-12-03T16:09:00Z,26.1914,-97.0507,1018.39,11111222 
TABS,ioos:station:wmo:42044:1,2002-12-03T16:39:00Z,26.1914,-97.0507,1018.33,11111222 
TABS,ioos:station:wmo:42044:1,2002-12-03T17:09:00Z,26.1914,-97.0507,1018.01,11111222 
TABS,ioos:station:wmo:42044:1,2002-12-03T17:39:00Z,26.1914,-97.0507,1017.5,11111222 
TABS,ioos:station:wmo:42044:1,2002-12-03T18:09:00Z,26.1914,-97.0507,1016.8,11111222 
TABS,ioos:station:wmo:42044:1,2002-12-03T18:39:00Z,26.1914,-97.0507,1016.3,11111222 
TABS,ioos:station:wmo:42044:1,2002-12-03T19:09:00Z,26.1914,-97.0507,1015.92,11111222 
TABS,ioos:station:wmo:42044:1,2002-12-03T19:39:00Z,26.1914,-97.0507,1015.41,11111222 
TABS,ioos:station:wmo:42044:1,2002-12-03T20:09:00Z,26.1914,-97.0507,1015.28,11111222 
TABS,ioos:station:wmo:42044:1,2002-12-03T20:39:00Z,26.1914,-97.0507,1014.77,11111222 
TABS,ioos:station:wmo:42044:1,2002-12-03T21:09:00Z,26.1914,-97.0507,1014.26,11111222 
TABS,ioos:station:wmo:42044:1,2002-12-03T21:39:00Z,26.1914,-97.0507,1014.26,11111222 
TABS,ioos:station:wmo:42044:1,2002-12-03T22:09:00Z,26.1914,-97.0507,1014.14,11111222 
TABS,ioos:station:wmo:42044:1,2002-12-03T22:39:00Z,26.1914,-97.0507,1014.26,11111222 
TABS,ioos:station:wmo:42044:1,2002-12-03T23:09:00Z,26.1914,-97.0507,1014.26,11111222 
TABS,ioos:station:wmo:42044:1,2002-12-03T23:39:00Z,26.1914,-97.0507,1014.58,11111222 
TABS,ioos:station:wmo:42044:1,2002-12-04T00:09:00Z,26.1914,-97.0507,1014.71,11111222 
TABS,ioos:station:wmo:42044:1,2002-12-04T00:39:00Z,26.1914,-97.0507,1014.77,11111222 
TABS,ioos:station:wmo:42044:1,2002-12-04T01:09:00Z,26.1914,-97.0507,1014.9,11111222 
TABS,ioos:station:wmo:42044:1,2002-12-04T01:39:00Z,26.1914,-97.0507,1015.09,11111222 
TABS,ioos:station:wmo:42044:1,2002-12-04T02:09:00Z,26.1914,-97.0507,1015.28,11111222 
TABS,ioos:station:wmo:42044:1,2002-12-04T02:39:00Z,26.1914,-97.0507,1014.96,11111222 
TABS,ioos:station:wmo:42044:1,2002-12-04T03:09:00Z,26.1914,-97.0507,1015.28,11111222 
TABS,ioos:station:wmo:42044:1,2002-12-04T03:39:00Z,26.1914,-97.0507,1015.34,11111222 
TABS,ioos:station:wmo:42044:1,2002-12-04T04:09:00Z,26.1914,-97.0507,1015.28,11111222 
TABS,ioos:station:wmo:42044:1,2002-12-04T04:39:00Z,26.1914,-97.0507,1015.03,11111222 
TABS,ioos:station:wmo:42044:1,2002-12-04T05:09:00Z,26.1914,-97.0507,1014.71,11111222 
TABS,ioos:station:wmo:42044:1,2002-12-04T05:39:00Z,26.1914,-97.0507,1014.58,11111222 
TABS,ioos:station:wmo:42044:1,2002-12-04T06:09:00Z,26.1914,-97.0507,1014.26,11111222 
TABS,ioos:station:wmo:42044:1,2002-12-04T06:39:00Z,26.1914,-97.0507,1013.63,11111222 
TABS,ioos:station:wmo:42044:1,2002-12-04T07:09:00Z,26.1914,-97.0507,1013.38,11111222 
TABS,ioos:station:wmo:42044:1,2002-12-04T07:39:00Z,26.1914,-97.0507,1013.12,11111222 
TABS,ioos:station:wmo:42044:1,2002-12-04T08:09:00Z,26.1914,-97.0507,1013.19,11111222 
TABS,ioos:station:wmo:42044:1,2002-12-04T08:39:00Z,26.1914,-97.0507,1013.63,11111222 
TABS,ioos:station:wmo:42044:1,2002-12-04T09:09:00Z,26.1914,-97.0507,1013.76,11111222 
TABS,ioos:station:wmo:42044:1,2002-12-04T09:39:00Z,26.1914,-97.0507,1013.82,11111222 
TABS,ioos:station:wmo:42044:1,2002-12-04T10:09:00Z,26.1914,-97.0507,1014.01,11111222 
TABS,ioos:station:wmo:42044:1,2002-12-04T10:39:00Z,26.1914,-97.0507,1014.07,11111222 
TABS,ioos:station:wmo:42044:1,2002-12-04T11:09:00Z,26.1914,-97.0507,1014.14,11111222 
TABS,ioos:station:wmo:42044:1,2002-12-04T11:39:00Z,26.1914,-97.0507,1014.07,11111222 
TABS,ioos:station:wmo:42044:1,2002-12-04T12:09:00Z,26.1914,-97.0507,1014.26,11111222 
TABS,ioos:station:wmo:42044:1,2002-12-04T12:39:00Z,26.1914,-97.0507,1014.58,11111222 
TABS,ioos:station:wmo:42044:1,2002-12-04T13:09:00Z,26.1914,-97.0507,1014.77,11111222 
TABS,ioos:station:wmo:42044:1,2002-12-04T13:39:00Z,26.1914,-97.0507,1015.03,11111222 
TABS,ioos:station:wmo:42044:1,2002-12-04T14:09:00Z,26.1914,-97.0507,1015.41,11111222 
TABS,ioos:station:wmo:42044:1,2002-12-04T14:39:00Z,26.1914,-97.0507,1015.47,11111222 
TABS,ioos:station:wmo:42044:1,2002-12-04T15:09:00Z,26.1914,-97.0507,1015.72,11111222 
TABS,ioos:station:wmo:42044:1,2002-12-04T15:39:00Z,26.1914,-97.0507,1016.23,11111222 
TABS,ioos:station:wmo:42044:1,2002-12-04T16:09:00Z,26.1914,-97.0507,1016.49,11111222 
TABS,ioos:station:wmo:42044:1,2002-12-04T16:39:00Z,26.1914,-97.0507,1016.55,11111222 
TABS,ioos:station:wmo:42044:1,2002-12-04T17:09:00Z,26.1914,-97.0507,1016.3,11111222 
TABS,ioos:station:wmo:42044:1,2002-12-04T17:39:00Z,26.1914,-97.0507,1016.04,11111222 
TABS,ioos:station:wmo:42044:1,2002-12-04T18:09:00Z,26.1914,-97.0507,1016.23,11111222 
TABS,ioos:station:wmo:42044:1,2002-12-04T18:39:00Z,26.1914,-97.0507,1016.93,11111222 
TABS,ioos:station:wmo:42044:1,2002-12-04T19:09:00Z,26.1914,-97.0507,1016.99,11111222 
TABS,ioos:station:wmo:42044:1,2002-12-04T19:39:00Z,26.1914,-97.0507,1016.8,11111222 
TABS,ioos:station:wmo:42044:1,2002-12-04T20:09:00Z,26.1914,-97.0507,1017.31,11111222 
TABS,ioos:station:wmo:42044:1,2002-12-04T20:39:00Z,26.1914,-97.0507,1016.99,11111222 
TABS,ioos:station:wmo:42044:1,2002-12-04T21:09:00Z,26.1914,-97.0507,1017.44,11111222 
TABS,ioos:station:wmo:42044:1,2002-12-04T21:39:00Z,26.1914,-97.0507,1010.39,11111222 
TABS,ioos:station:wmo:42044:1,2002-12-04T22:09:00Z,26.1914,-97.0507,1009.19,11111222 
TABS,ioos:station:wmo:42044:1,2002-12-04T22:39:00Z,26.1914,-97.0507,1009.19,11111222 
TABS,ioos:station:wmo:42044:1,2002-12-04T23:09:00Z,26.1914,-97.0507,1009.69,11111222 
TABS,ioos:station:wmo:42044:1,2002-12-04T23:39:00Z,26.1914,-97.0507,1010.39,11111222 
TABS,ioos:station:wmo:42044:1,2002-12-05T00:09:00Z,26.1914,-97.0507,1011.03,11111222 
TABS,ioos:station:wmo:42044:1,2002-12-05T00:39:00Z,26.1914,-97.0507,1012.49,11111222 
TABS,ioos:station:wmo:42044:1,2002-12-05T01:09:00Z,26.1914,-97.0507,1011.85,11111222 
TABS,ioos:station:wmo:42044:1,2002-12-05T01:39:00Z,26.1914,-97.0507,1010.96,11111222 
TABS,ioos:station:wmo:42044:1,2002-12-05T02:09:00Z,26.1914,-97.0507,1010.65,11111222 
TABS,ioos:station:wmo:42044:1,2002-12-05T02:39:00Z,26.1914,-97.0507,1010.27,11111222 
TABS,ioos:station:wmo:42044:1,2002-12-05T03:09:00Z,26.1914,-97.0507,1016.61,11111222 
TABS,ioos:station:wmo:42044:1,2002-12-05T03:39:00Z,26.1914,-97.0507,1015.15,11111222 
TABS,ioos:station:wmo:42044:1,2002-12-05T04:09:00Z,26.1914,-97.0507,1014.65,11111222 
TABS,ioos:station:wmo:42044:1,2002-12-05T04:39:00Z,26.1914,-97.0507,1015.47,11111222 
TABS,ioos:station:wmo:42044:1,2002-12-05T05:09:00Z,26.1914,-97.0507,1015.34,11111222 
TABS,ioos:station:wmo:42044:1,2002-12-05T05:39:00Z,26.1914,-97.0507,1016.61,11111222 
TABS,ioos:station:wmo:42044:1,2002-12-05T06:09:00Z,26.1914,-97.0507,1015.09,11111222 
TABS,ioos:station:wmo:42044:1,2002-12-05T06:39:00Z,26.1914,-97.0507,1015.72,11111222 
TABS,ioos:station:wmo:42044:1,2002-12-05T07:09:00Z,26.1914,-97.0507,1016.04,11111222 
TABS,ioos:station:wmo:42044:1,2002-12-05T07:39:00Z,26.1914,-97.0507,1015.79,11111222 
TABS,ioos:station:wmo:42044:1,2002-12-05T08:09:00Z,26.1914,-97.0507,1016.74,11111222 
TABS,ioos:station:wmo:42044:1,2002-12-05T08:39:00Z,26.1914,-97.0507,1016.68,11111222 
TABS,ioos:station:wmo:42044:1,2002-12-05T09:09:00Z,26.1914,-97.0507,1015.47,11111222 
TABS,ioos:station:wmo:42044:1,2002-12-05T09:39:00Z,26.1914,-97.0507,1016.04,11111222 
TABS,ioos:station:wmo:42044:1,2002-12-05T10:09:00Z,26.1914,-97.0507,1016.11,11111222 
TABS,ioos:station:wmo:42044:1,2002-12-05T10:39:00Z,26.1914,-97.0507,1016.36,11111222 
TABS,ioos:station:wmo:42044:1,2002-12-05T11:09:00Z,26.1914,-97.0507,1016.11,11111222 
TABS,ioos:station:wmo:42044:1,2002-12-05T11:39:00Z,26.1914,-97.0507,1015.72,11111222 
TABS,ioos:station:wmo:42044:1,2002-12-05T12:09:00Z,26.1914,-97.0507,1014.01,11111222 
TABS,ioos:station:wmo:42044:1,2002-12-05T12:39:00Z,26.1914,-97.0507,1016.3,11111222 
TABS,ioos:station:wmo:42044:1,2002-12-05T13:09:00Z,26.1914,-97.0507,1016.11,11111222 
TABS,ioos:station:wmo:42044:1,2002-12-05T13:39:00Z,26.1914,-97.0507,1016.61,11111222 
TABS,ioos:station:wmo:42044:1,2002-12-05T14:09:00Z,26.1914,-97.0507,1016.42,11111222 
TABS,ioos:station:wmo:42044:1,2002-12-05T14:39:00Z,26.1914,-97.0507,1018.26,11111222 
TABS,ioos:station:wmo:42044:1,2002-12-05T15:09:00Z,26.1914,-97.0507,1018.71,11111222 
TABS,ioos:station:wmo:42044:1,2002-12-05T15:39:00Z,26.1914,-97.0507,1020.29,11111222 
TABS,ioos:station:wmo:42044:1,2002-12-05T16:09:00Z,26.1914,-97.0507,1020.49,11111222 
TABS,ioos:station:wmo:42044:1,2002-12-05T16:39:00Z,26.1914,-97.0507,1019.47,11111222 
TABS,ioos:station:wmo:42044:1,2002-12-05T17:09:00Z,26.1914,-97.0507,1019.91,11111222 
TABS,ioos:station:wmo:42044:1,2002-12-05T17:39:00Z,26.1914,-97.0507,1020.55,11111222 
TABS,ioos:station:wmo:42044:1,2002-12-05T18:09:00Z,26.1914,-97.0507,1019.98,11111222 
TABS,ioos:station:wmo:42044:1,2002-12-05T18:39:00Z,26.1914,-97.0507,1019.79,11111222 
TABS,ioos:station:wmo:42044:1,2002-12-05T19:09:00Z,26.1914,-97.0507,1019.34,11111222 
TABS,ioos:station:wmo:42044:1,2002-12-05T19:39:00Z,26.1914,-97.0507,1018.71,11111222 
TABS,ioos:station:wmo:42044:1,2002-12-05T20:09:00Z,26.1914,-97.0507,1020.36,11111222 
TABS,ioos:station:wmo:42044:1,2002-12-05T20:39:00Z,26.1914,-97.0507,1020.29,11111222 
TABS,ioos:station:wmo:42044:1,2002-12-05T21:09:00Z,26.1914,-97.0507,1020.29,11111222 
TABS,ioos:station:wmo:42044:1,2002-12-05T21:39:00Z,26.1914,-97.0507,1020.36,11111222 
TABS,ioos:station:wmo:42044:1,2002-12-05T22:09:00Z,26.1914,-97.0507,1020.1,11111222 
TABS,ioos:station:wmo:42044:1,2002-12-05T22:39:00Z,26.1914,-97.0507,1020.8,11111222 
TABS,ioos:station:wmo:42044:1,2002-12-05T23:09:00Z,26.1914,-97.0507,1020.99,11111222 
TABS,ioos:station:wmo:42044:1,2002-12-05T23:39:00Z,26.1914,-97.0507,1021.37,11111222 
TABS,ioos:station:wmo:42044:1,2002-12-06T00:09:00Z,26.1914,-97.0507,1020.74,11111222 
TABS,ioos:station:wmo:42044:1,2002-12-06T00:39:00Z,26.1914,-97.0507,1022.07,11111222 
TABS,ioos:station:wmo:42044:1,2002-12-06T01:09:00Z,26.1914,-97.0507,1021.31,11111222 
TABS,ioos:station:wmo:42044:1,2002-12-06T01:39:00Z,26.1914,-97.0507,1022.83,11111222 
TABS,ioos:station:wmo:42044:1,2002-12-06T02:09:00Z,26.1914,-97.0507,1023.09,11111222 
TABS,ioos:station:wmo:42044:1,2002-12-06T02:39:00Z,26.1914,-97.0507,1021.75,11111222 
TABS,ioos:station:wmo:42044:1,2002-12-06T03:09:00Z,26.1914,-97.0507,1021.75,11111222 
TABS,ioos:station:wmo:42044:1,2002-12-06T03:39:00Z,26.1914,-97.0507,1021.31,11111222 
TABS,ioos:station:wmo:42044:1,2002-12-06T04:09:00Z,26.1914,-97.0507,1021.69,11111222 
TABS,ioos:station:wmo:42044:1,2002-12-06T04:39:00Z,26.1914,-97.0507,1022.9,11111222 
TABS,ioos:station:wmo:42044:1,2002-12-06T05:09:00Z,26.1914,-97.0507,1021.06,11111222 
TABS,ioos:station:wmo:42044:1,2002-12-06T05:39:00Z,26.1914,-97.0507,1021.63,11111222 
TABS,ioos:station:wmo:42044:1,2002-12-06T06:09:00Z,26.1914,-97.0507,1022.71,11111222 
TABS,ioos:station:wmo:42044:1,2002-12-06T06:39:00Z,26.1914,-97.0507,1022.07,11111222 
TABS,ioos:station:wmo:42044:1,2002-12-06T07:09:00Z,26.1914,-97.0507,1021.18,11111222 
TABS,ioos:station:wmo:42044:1,2002-12-06T07:39:00Z,26.1914,-97.0507,1021.18,11111222 
TABS,ioos:station:wmo:42044:1,2002-12-06T08:09:00Z,26.1914,-97.0507,1021.82,11111222 
TABS,ioos:station:wmo:42044:1,2002-12-06T08:39:00Z,26.1914,-97.0507,1021.5,11111222 
TABS,ioos:station:wmo:42044:1,2002-12-06T09:09:00Z,26.1914,-97.0507,1021.12,11111222 
TABS,ioos:station:wmo:42044:1,2002-12-06T09:39:00Z,26.1914,-97.0507,1021.12,11111222 
TABS,ioos:station:wmo:42044:1,2002-12-06T10:09:00Z,26.1914,-97.0507,1021.18,11111222 
TABS,ioos:station:wmo:42044:1,2002-12-06T10:39:00Z,26.1914,-97.0507,1022.14,11111222 
TABS,ioos:station:wmo:42044:1,2002-12-06T11:09:00Z,26.1914,-97.0507,1022.71,11111222 
TABS,ioos:station:wmo:42044:1,2002-12-06T11:39:00Z,26.1914,-97.0507,1023.02,11111222 
TABS,ioos:station:wmo:42044:1,2002-12-06T12:09:00Z,26.1914,-97.0507,1021.82,11111222 
TABS,ioos:station:wmo:42044:1,2002-12-06T12:39:00Z,26.1914,-97.0507,1021.56,11111222 
TABS,ioos:station:wmo:42044:1,2002-12-06T13:09:00Z,26.1914,-97.0507,1019.34,11111222 
TABS,ioos:station:wmo:42044:1,2002-12-06T13:39:00Z,26.1914,-97.0507,1022.39,11111222 
TABS,ioos:station:wmo:42044:1,2002-12-06T14:09:00Z,26.1914,-97.0507,1025.44,11111222 
TABS,ioos:station:wmo:42044:1,2002-12-06T14:39:00Z,26.1914,-97.0507,1025.63,11111222 
TABS,ioos:station:wmo:42044:1,2002-12-06T15:09:00Z,26.1914,-97.0507,1025.82,11111222 
TABS,ioos:station:wmo:42044:1,2002-12-06T15:39:00Z,26.1914,-97.0507,1026.01,11111222 
TABS,ioos:station:wmo:42044:1,2002-12-06T16:09:00Z,26.1914,-97.0507,1025.94,11111222 
TABS,ioos:station:wmo:42044:1,2002-12-06T16:39:00Z,26.1914,-97.0507,1025.94,11111222 
TABS,ioos:station:wmo:42044:1,2002-12-06T17:09:00Z,26.1914,-97.0507,1026.01,11111222 
TABS,ioos:station:wmo:42044:1,2002-12-06T17:39:00Z,26.1914,-97.0507,1025.69,11111222 
TABS,ioos:station:wmo:42044:1,2002-12-06T18:09:00Z,26.1914,-97.0507,1024.93,11111222 
TABS,ioos:station:wmo:42044:1,2002-12-06T18:39:00Z,26.1914,-97.0507,1024.93,11111222 
TABS,ioos:station:wmo:42044:1,2002-12-06T19:09:00Z,26.1914,-97.0507,1024.36,11111222 
TABS,ioos:station:wmo:42044:1,2002-12-06T19:39:00Z,26.1914,-97.0507,1023.79,11111222 
TABS,ioos:station:wmo:42044:1,2002-12-06T20:09:00Z,26.1914,-97.0507,1023.53,11111222 
TABS,ioos:station:wmo:42044:1,2002-12-06T20:39:00Z,26.1914,-97.0507,1023.21,11111222 
TABS,ioos:station:wmo:42044:1,2002-12-06T21:09:00Z,26.1914,-97.0507,1022.58,11111222 
TABS,ioos:station:wmo:42044:1,2002-12-06T21:39:00Z,26.1914,-97.0507,1022.2,11111222 
TABS,ioos:station:wmo:42044:1,2002-12-06T22:09:00Z,26.1914,-97.0507,1022.26,11111222 
TABS,ioos:station:wmo:42044:1,2002-12-06T22:39:00Z,26.1914,-97.0507,1021.88,11111222 
TABS,ioos:station:wmo:42044:1,2002-12-06T23:09:00Z,26.1914,-97.0507,1021.44,11111222 
TABS,ioos:station:wmo:42044:1,2002-12-06T23:39:00Z,26.1914,-97.0507,1021.5,11111222 
TABS,ioos:station:wmo:42044:1,2002-12-07T00:09:00Z,26.1914,-97.0507,1021.63,11111222 
TABS,ioos:station:wmo:42044:1,2002-12-07T00:39:00Z,26.1914,-97.0507,1021.5,11111222 
TABS,ioos:station:wmo:42044:1,2002-12-07T01:09:00Z,26.1914,-97.0507,1021.63,11111222 
TABS,ioos:station:wmo:42044:1,2002-12-07T01:39:00Z,26.1914,-97.0507,1021.75,11111222 
TABS,ioos:station:wmo:42044:1,2002-12-07T02:09:00Z,26.1914,-97.0507,1021.63,11111222 
TABS,ioos:station:wmo:42044:1,2002-12-07T02:39:00Z,26.1914,-97.0507,1021.82,11111222 
TABS,ioos:station:wmo:42044:1,2002-12-07T03:09:00Z,26.1914,-97.0507,1021.95,11111222 
TABS,ioos:station:wmo:42044:1,2002-12-07T03:39:00Z,26.1914,-97.0507,1022.01,11111222 
TABS,ioos:station:wmo:42044:1,2002-12-07T04:09:00Z,26.1914,-97.0507,1022.14,11111222 
TABS,ioos:station:wmo:42044:1,2002-12-07T04:39:00Z,26.1914,-97.0507,1021.75,11111222 
TABS,ioos:station:wmo:42044:1,2002-12-07T05:09:00Z,26.1914,-97.0507,1021.44,11111222 
TABS,ioos:station:wmo:42044:1,2002-12-07T05:39:00Z,26.1914,-97.0507,1020.8,11111222 